GalileoSat-32

operational
NORAD ID: 61183 Int'l Des: 2024-167 Owner: EUSPA Country: I-EU Constellation: Galileo
MEOCIRCULAR

关于 GalileoSat-32

正在加载描述...

实时位置

正在加载3D地球...

即将过境

高度历史

Altitude vs Time

uPlot chart will show altitude changes over time

两行轨道根数

1 61183U 24167B 25297.58143483 .00000001 00000-0 00000+0 0 9990
2 61183 55.2585 227.7849 0001067 228.5793 314.6784 1.70473549 6830
Epoch: Oct 24, 2025 • Age: 37 hours

当前状态

高度 23230.5 km
速度 3.67 km/s
星下点 44.43°N, 173.88°W
发射日期 Sep 17, 2024
运行时间 1.1 years
类型 navigation

技术详情

分类 Payload
质量 733.00 kg
干质量 660.00 kg
总质量 733.00 kg
长度 2.70 m
直径 1.60 m
跨度 14.50 m
形状 Box+2 pan
制造商 OHB
平台类型 Galileo
阶段状态 In Orbit
所有者/国家 EUSPA/I-EU

大型星座

Loading constellations...